Regional Weather Roundup
Issued by NWS Little Rock, AR

Home | Current Version | Previous Version | Text Only | Print | Product List | Glossary Off
Versions: 1 2 3 4 5 6 7 8 9 10 11 12 13 14 15 16 17 18 19 20 21 22 23 24 25 26 27

000
ASUS44 KLZK 270405
RWRLZK

WEATHER ROUNDUP FOR ARKANSAS
NATIONAL WEATHER SERVICE LITTLE ROCK AR
1100 PM CDT FRI AUG 26 2016

NOTE: "FAIR" INDICATES FEW OR NO CLOUDS BELOW 12,000 FEET WITH NO
SIGNIFICANT WEATHER AND/OR OBSTRUCTIONS TO VISIBILITY.

ARZ001-003-010-029-270500-
NORTHWEST ARKANSAS

CITY           SKY/WX    TMP DP  RH WIND       PRES   REMARKS
FAYETTEVILLE   CLOUDY    70  70 100 CALM      30.06S
FORT SMITH     MOCLDY    76  71  85 W6        30.02R
HARRISON       CLEAR     74  71  91 SE8       30.06F
BENTONVILLE    CLOUDY    72  66  83 CALM      30.06S
ROGERS         CLOUDY    72  70  93 CALM      30.07S
SILOAM SPGS    PTCLDY    72  63  73 CALM      30.07S
HIGHFILL       CLOUDY    73  71  93 CALM      30.06S
$$

ARZ004-005-016-270500-
NORTH CENTRAL ARKANSAS

CITY           SKY/WX    TMP DP  RH WIND       PRES   REMARKS
BATESVILLE     CLOUDY    73  72  94 CALM      30.04F
FLIPPIN        CLEAR     73  68  83 NE3       30.03S
MTN HOME       PTCLDY    75  73  93 SE6       30.06R
$$

ARZ040-041-270500-
WEST CENTRAL ARKANSAS

CITY           SKY/WX    TMP DP  RH WIND       PRES   REMARKS
MENA           MOCLDY    73  73 100 CALM      30.05S
MOUNT IDA      CLEAR     75  73  93 CALM      30.02F
$$

ARZ009-017-025-026-028-270500-
NORTHEAST ARKANSAS

CITY           SKY/WX    TMP DP  RH WIND       PRES   REMARKS
CORNING          N/A     73  73 100 CALM      30.05F
JONESBORO      CLOUDY    73  71  93 CALM      30.05S
NEWPORT        LGT RAIN  73  72  96 SE7       30.04F
WALNUT RIDGE   PTCLDY    73  70  88 SE6       30.04F
BLYTHEVILLE    PTCLDY    73  32  22 N6        30.06S
$$

ARZ022-023-033-042-044-270500-
CENTRAL ARKANSAS

CITY           SKY/WX    TMP DP  RH WIND       PRES   REMARKS
LITTLE ROCK    MOCLDY    79  73  82 E7        30.04S
N LITTLE ROCK    N/A     76  72  87 SE9       30.01F
JACKSONVILLE   PTCLDY    77  76  97 SE2       30.03F
SEARCY         PTCLDY    75  74  96 E6        30.06F
HOT SPRINGS    PTCLDY    77  73  87 E8        30.03F
RUSSELLVILLE   CLEAR     79  72  79 E7        30.01F
$$

ARZ036-270500-
EAST ARKANSAS

CITY           SKY/WX    TMP DP  RH WIND       PRES   REMARKS
WEST MEMPHIS   PTCLDY    73  71  93 SE6       30.04F
$$

ARZ050-053-066-070-073-270500-
SOUTHWEST ARKANSAS

CITY           SKY/WX    TMP DP  RH WIND       PRES   REMARKS
ARKADELPHIA    FAIR      78  77  96 CALM      30.02S
TEXARKANA      CLEAR     77  70  79 CALM      30.02S
EL DORADO      PTCLDY    77  73  87 E3        30.01F
DE QUEEN       CLOUDY    77  77 100 CALM      30.00S
$$

ARZ056-057-069-270500-
SOUTHEAST ARKANSAS

CITY           SKY/WX    TMP DP  RH WIND       PRES   REMARKS
PINE BLUFF     CLOUDY    76  73  91 SE5       30.04S
STUTTGART      PTCLDY    77  72  83 SE5       30.04F
MONTICELLO     PTCLDY    78  73  84 CALM      30.04S

$$






USA.gov is the U.S. government's official web portal to all federal, state and local government web resources and services.